QPF
0.00 0.00 0.00 0.00 0.00 0.00 0.00 0.00 0.00 0.00 0.00 0.00 0.00 0.00 0.00 0.01 0.00 0.01 0.01 0.01 0.01 0.01 0.01 0.01 0.02 0.02 0.02 0.02 0.01 0.01 0.01 0.01 0.02 0.02 0.01 0.02 0.01 0.01 0.00 0.01 0.01 0.01 0.00
0.00 0.00 0.00 0.00 0.00 0.00 0.00 0.00 0.00 0.00 0.00 0.00 0.00 0.00 0.00 0.01 0.00 0.00 0.00 0.00 0.01 0.01 0.01 0.02 0.02 0.02 0.02 0.01 0.01 0.01 0.01 0.00 0.01 0.02 0.02 0.01 0.01 0.01 0.01 0.01 0.01 0.01 0.01
0.00 0.00 0.00 0.00 0.00 0.00 0.00 0.00 0.00 0.00 0.00 0.00 0.00 0.00 0.01 0.01 0.00 0.00 0.00 0.01 0.01 0.02 0.03 0.03 0.02 0.02 0.02 0.02 0.02 0.01 0.00 0.00 0.01 0.02 0.02 0.02 0.01 0.01 0.01 0.01 0.01 0.01 0.01
0.00 0.00 0.00 0.00 0.00 0.00 0.00 0.00 0.00 0.00 0.00 0.00 0.00 0.00 0.01 0.01 0.00 0.00 0.00 0.01 0.01 0.02 0.02 0.02 0.01 0.01 0.02 0.02 0.01 0.01 0.01 0.01 0.01 0.02 0.01 0.01 0.01 0.00 0.00 0.01 0.01 0.01 0.01
0.00 0.00 0.00 0.00 0.00 0.00 0.00 0.00 0.00 0.00 0.00 0.00 0.00 0.00 0.00 0.00 0.00 0.00 0.00 0.00 0.00 0.01 0.01 0.00 0.00 0.00 0.00 0.00 0.00 0.00 0.00 0.01 0.01 0.01 0.01 0.01 0.00 0.00 0.01 0.01 0.02 0.02 0.01
0.00 0.00 0.00 0.00 0.00 0.00 0.00 0.00 0.00 0.00 0.00 0.00 0.00 0.00 0.00 0.00 0.00 0.00 0.00 0.00 0.00 0.00 0.00 0.00 0.00 0.00 0.00 0.00 0.00 0.00 0.00 0.00 0.00 0.00 0.00 0.00 0.00 0.00 0.01 0.02 0.02 0.02 0.01
0.00 0.00 0.00 0.00 0.00 0.00 0.00 0.00 0.00 0.00 0.00 0.00 0.00 0.00 0.00 0.00 0.00 0.00 0.00 0.00 0.00 0.00 0.00 0.00 0.00 0.00 0.00 0.00 0.00 0.00 0.00 0.00 0.00 0.00 0.00 0.00 0.00 0.01 0.01 0.02 0.02 0.02 0.01
0.00 0.00 0.00 0.00 0.00 0.00 0.00 0.00 0.00 0.00 0.00 0.00 0.00 0.00 0.00 0.00 0.00 0.00 0.00 0.00 0.00 0.00 0.00 0.00 0.00 0.00 0.00 0.00 0.00 0.00 0.00 0.00 0.00 0.00 0.00 0.00 0.00 0.01 0.01 0.01 0.01 0.01 0.01
0.01 0.01 0.01 0.01 0.01 0.01 0.00 0.00 0.00 0.00 0.00 0.00 0.00 0.00 0.00 0.00 0.00 0.00 0.00 0.00 0.00 0.00 0.00 0.00 0.00 0.00 0.00 0.00 0.00 0.00 0.00 0.00 0.00 0.00 0.00 0.00 0.00 0.00 0.00 0.00 0.01 0.00 0.00
0.01 0.01 0.01 0.01 0.01 0.01 0.00 0.00 0.00 0.00 0.00 0.00 0.00 0.00 0.00 0.00 0.00 0.00 0.00 0.00 0.00 0.00 0.00 0.00 0.00 0.00 0.00 0.00 0.00 0.00 0.00 0.00 0.00 0.00 0.00 0.00 0.00 0.00 0.00 0.00 0.01 0.01 0.00
0.01 0.01 0.01 0.01 0.01 0.00 0.00 0.00 0.00 0.00 0.00 0.00 0.00 0.01 0.01 0.00 0.00 0.01 0.00 0.00 0.00 0.00 0.00 0.00 0.00 0.00 0.00 0.00 0.00 0.00 0.00 0.00 0.00 0.00 0.00 0.00 0.00 0.00 0.00 0.00 0.00 0.01 0.01
0.00 0.00 0.00 0.00 0.00 0.00 0.00 0.01 0.01 0.01 0.00 0.01 0.00 0.01 0.01 0.01 0.01 0.01 0.01 0.00 0.00 0.00 0.00 0.00 0.00 0.00 0.00 0.00 0.00 0.00 0.00 0.00 0.00 0.00 0.00 0.00 0.00 0.00 0.00 0.00 0.00 0.00 0.00
0.00 0.00 0.00 0.00 0.00 0.00 0.00 0.01 0.01 0.00 0.00 0.00 0.00 0.00 0.00 0.00 0.00 0.00 0.00 0.00 0.01 0.00 0.00 0.00 0.00 0.00 0.00 0.00 0.00 0.00 0.00 0.00 0.00 0.00 0.00 0.00 0.00 0.00 0.00 0.00 0.00 0.00 0.00
0.00 0.01 0.01 0.01 0.00 0.00 0.00 0.00 0.00 0.00 0.00 0.00 0.00 0.00 0.00 0.01 0.00 0.00 0.00 0.00 0.00 0.00 0.00 0.00 0.00 0.00 0.00 0.00 0.00 0.00 0.00 0.00 0.00 0.00 0.00 0.00 0.00 0.00 0.00 0.00 0.00 0.00 0.00
0.01 0.02 0.03 0.02 0.01 0.00 0.00 0.01 0.01 0.01 0.01 0.01 0.01 0.01 0.01 0.00 0.01 0.01 0.00 0.00 0.00 0.00 0.00 0.00 0.00 0.00 0.00 0.00 0.00 0.00 0.00 0.00 0.00 0.00 0.00 0.00 0.00 0.00 0.00 0.00 0.00 0.00 0.01
0.02 0.02 0.03 0.03 0.02 0.01 0.01 0.01 0.01 0.01 0.01 0.01 0.02 0.01 0.01 0.01 0.01 0.00 0.00 0.00 0.00 0.00 0.00 0.00 0.00 0.00 0.00 0.00 0.00 0.00 0.00 0.00 0.00 0.00 0.00 0.00 0.00 0.00 0.00 0.00 0.00 0.00 0.00
0.01 0.01 0.02 0.02 0.01 0.01 0.00 0.01 0.01 0.01 0.01 0.01 0.01 0.01 0.01 0.01 0.01 0.01 0.01 0.00 0.00 0.00 0.00 0.00 0.00 0.00 0.00 0.00 0.00 0.00 0.00 0.00 0.00 0.00 0.00 0.00 0.00 0.00 0.00 0.00 0.00 0.00 0.00
0.02 0.02 0.02 0.02 0.01 0.01 0.01 0.01 0.01 0.01 0.01 0.01 0.01 0.01 0.01 0.01 0.01 0.01 0.00 0.00 0.00 0.00 0.00 0.00 0.00 0.00 0.00 0.00 0.00 0.00 0.00 0.00 0.00 0.00 0.00 0.00 0.00 0.00 0.00 0.00 0.00 0.00 0.00
0.03 0.03 0.03 0.02 0.02 0.01 0.01 0.01 0.00 0.00 0.00 0.00 0.00 0.00 0.00 0.00 0.00 0.00 0.00 0.00 0.00 0.00 0.00 0.00 0.00 0.00 0.00 0.00 0.00 0.00 0.00 0.00 0.00 0.00 0.00 0.00 0.00 0.00 0.00 0.00 0.00 0.00 0.00
0.02 0.02 0.02 0.02 0.02 0.01 0.00 0.00 0.00 0.00 0.00 0.00 0.00 0.00 0.00 0.00 0.00 0.00 0.00 0.00 0.00 0.00 0.00 0.00 0.00 0.00 0.00 0.00 0.00 0.00 0.00 0.00 0.00 0.00 0.00 0.00 0.00 0.00 0.00 0.00 0.00 0.00 0.00
0.00 0.01 0.01 0.01 0.01 0.01 0.01 0.01 0.01 0.01 0.00 0.00 0.00 0.00 0.00 0.00 0.00 0.00 0.00 0.00 0.00 0.00 0.00 0.00 0.00 0.00 0.00 0.00 0.00 0.00 0.00 0.00 0.00 0.00 0.00 0.00 0.00 0.01 0.01 0.01 0.01 0.01 0.01
0.00 0.01 0.01 0.01 0.01 0.01 0.01 0.01 0.01 0.01 0.01 0.01 0.01 0.01 0.00 0.00 0.00 0.00 0.00 0.00 0.00 0.00 0.00 0.00 0.00 0.00 0.00 0.00 0.00 0.00 0.00 0.00 0.00 0.00 0.00 0.00 0.00 0.01 0.01 0.01 0.01 0.01 0.01
0.00 0.00 0.00 0.00 0.00 0.01 0.01 0.00 0.00 0.00 0.00 0.00 0.00 0.00 0.00 0.00 0.00 0.00 0.00 0.00 0.00 0.00 0.00 0.00 0.00 0.00 0.00 0.00 0.00 0.00 0.00 0.00 0.01 0.01 0.01 0.01 0.01 0.01 0.01 0.01 0.01 0.01 0.01
0.00 0.00 0.00 0.00 0.00 0.01 0.01 0.01 0.00 0.00 0.00 0.00 0.00 0.00 0.00 0.00 0.00 0.00 0.00 0.00 0.00 0.00 0.00 0.00 0.00 0.00 0.00 0.00 0.00 0.00 0.00 0.01 0.01 0.01 0.01 0.01 0.01 0.01 0.01 0.01 0.02 0.02 0.02
0.01 0.01 0.01 0.01 0.01 0.00 0.00 0.00 0.00 0.00 0.00 0.00 0.00 0.00 0.00 0.00 0.00 0.00 0.00 0.00 0.00 0.00 0.00 0.00 0.00 0.00 0.00 0.00 0.00 0.00 0.01 0.01 0.01 0.01 0.01 0.01 0.01 0.01 0.02 0.02 0.02 0.02 0.02
0.01 0.01 0.01 0.01 0.01 0.01 0.01 0.00 0.00 0.00 0.00 0.00 0.00 0.00 0.00 0.00 0.00 0.00 0.00 0.00 0.00 0.00 0.00 0.00 0.00 0.00 0.00 0.00 0.00 0.00 0.01 0.01 0.01 0.01 0.02 0.02 0.02 0.02 0.02 0.02 0.02 0.02 0.02
MSLP
1017.33 1017.55 1017.77 1017.97 1018.15 1018.27 1018.35 1018.40 1018.42 1018.44 1018.48 1018.55 1018.67 1018.81 1018.97 1019.13 1019.27 1019.38 1019.45 1019.49 1019.51 1019.53 1019.57 1019.65 1019.77 1019.94 1020.14 1020.36 1020.59 1020.78 1020.94 1021.05 1021.10 1021.09 1021.04 1020.95 1020.85 1020.73 1020.62 1020.53 1020.46 1020.42 1020.40
1017.39 1017.62 1017.84 1018.03 1018.20 1018.33 1018.43 1018.49 1018.55 1018.62 1018.70 1018.82 1018.97 1019.14 1019.33 1019.51 1019.67 1019.80 1019.90 1019.96 1019.99 1020.02 1020.07 1020.14 1020.24 1020.39 1020.57 1020.78 1020.99 1021.19 1021.36 1021.49 1021.58 1021.60 1021.58 1021.50 1021.39 1021.25 1021.10 1020.95 1020.80 1020.68 1020.58
1017.39 1017.65 1017.88 1018.09 1018.27 1018.42 1018.54 1018.64 1018.74 1018.85 1018.97 1019.13 1019.31 1019.50 1019.71 1019.90 1020.08 1020.22 1020.34 1020.42 1020.48 1020.53 1020.59 1020.67 1020.78 1020.92 1021.10 1021.30 1021.51 1021.72 1021.91 1022.06 1022.18 1022.24 1022.25 1022.19 1022.09 1021.94 1021.75 1021.54 1021.33 1021.12 1020.94
1017.31 1017.62 1017.91 1018.15 1018.36 1018.54 1018.70 1018.84 1018.98 1019.13 1019.30 1019.48 1019.68 1019.89 1020.10 1020.30 1020.48 1020.63 1020.76 1020.86 1020.94 1021.03 1021.11 1021.22 1021.35 1021.50 1021.68 1021.89 1022.10 1022.31 1022.51 1022.69 1022.83 1022.92 1022.96 1022.93 1022.84 1022.69 1022.50 1022.26 1021.99 1021.73 1021.47
1017.14 1017.54 1017.89 1018.20 1018.46 1018.69 1018.90 1019.09 1019.28 1019.47 1019.67 1019.88 1020.10 1020.31 1020.52 1020.71 1020.88 1021.03 1021.16 1021.28 1021.39 1021.50 1021.62 1021.76 1021.91 1022.08 1022.27 1022.48 1022.69 1022.90 1023.10 1023.28 1023.44 1023.55 1023.61 1023.62 1023.56 1023.43 1023.25 1023.01 1022.73 1022.44 1022.15
1016.90 1017.40 1017.83 1018.21 1018.54 1018.84 1019.10 1019.35 1019.59 1019.83 1020.06 1020.30 1020.52 1020.74 1020.94 1021.12 1021.28 1021.42 1021.56 1021.68 1021.81 1021.95 1022.10 1022.27 1022.45 1022.64 1022.83 1023.03 1023.24 1023.43 1023.62 1023.79 1023.94 1024.07 1024.15 1024.19 1024.16 1024.08 1023.93 1023.73 1023.48 1023.19 1022.90
1016.60 1017.18 1017.71 1018.17 1018.58 1018.94 1019.27 1019.58 1019.87 1020.16 1020.43 1020.69 1020.93 1021.15 1021.34 1021.52 1021.67 1021.80 1021.93 1022.07 1022.22 1022.38 1022.56 1022.75 1022.95 1023.15 1023.35 1023.53 1023.71 1023.88 1024.04 1024.19 1024.33 1024.45 1024.55 1024.61 1024.63 1024.60 1024.51 1024.37 1024.17 1023.94 1023.68
1016.23 1016.90 1017.50 1018.05 1018.53 1018.96 1019.36 1019.73 1020.08 1020.42 1020.73 1021.02 1021.29 1021.52 1021.72 1021.89 1022.03 1022.17 1022.31 1022.45 1022.62 1022.80 1023.00 1023.21 1023.42 1023.63 1023.82 1023.99 1024.14 1024.28 1024.40 1024.51 1024.63 1024.73 1024.83 1024.92 1024.98 1025.01 1024.99 1024.92 1024.79 1024.62 1024.42
1015.83 1016.56 1017.23 1017.83 1018.38 1018.88 1019.34 1019.78 1020.19 1020.58 1020.94 1021.27 1021.57 1021.82 1022.04 1022.22 1022.38 1022.52 1022.67 1022.83 1023.01 1023.21 1023.43 1023.66 1023.88 1024.09 1024.28 1024.43 1024.56 1024.66 1024.74 1024.82 1024.91 1025.00 1025.09 1025.19 1025.28 1025.36 1025.39 1025.39 1025.34 1025.23 1025.09
1015.43 1016.19 1016.90 1017.55 1018.15 1018.70 1019.22 1019.72 1020.19 1020.63 1021.05 1021.43 1021.77 1022.06 1022.31 1022.52 1022.70 1022.86 1023.03 1023.21 1023.41 1023.63 1023.87 1024.11 1024.35 1024.56 1024.75 1024.89 1025.00 1025.08 1025.14 1025.19 1025.24 1025.31 1025.40 1025.50 1025.60 1025.70 1025.78 1025.83 1025.82 1025.77 1025.66
1015.05 1015.83 1016.56 1017.24 1017.88 1018.48 1019.04 1019.59 1020.11 1020.61 1021.08 1021.52 1021.91 1022.24 1022.53 1022.78 1022.99 1023.19 1023.38 1023.59 1023.81 1024.05 1024.31 1024.57 1024.82 1025.05 1025.25 1025.39 1025.50 1025.57 1025.62 1025.65 1025.69 1025.74 1025.81 1025.89 1026.00 1026.10 1026.19 1026.24 1026.26 1026.23 1026.14
1014.74 1015.52 1016.26 1016.96 1017.62 1018.25 1018.86 1019.45 1020.02 1020.57 1021.09 1021.58 1022.01 1022.39 1022.73 1023.02 1023.27 1023.50 1023.72 1023.95 1024.20 1024.47 1024.75 1025.03 1025.30 1025.55 1025.76 1025.93 1026.05 1026.13 1026.18 1026.21 1026.24 1026.27 1026.32 1026.39 1026.47 1026.55 1026.62 1026.66 1026.67 1026.63 1026.53
1014.54 1015.30 1016.04 1016.76 1017.45 1018.11 1018.75 1019.38 1019.98 1020.57 1021.12 1021.64 1022.12 1022.54 1022.91 1023.24 1023.53 1023.79 1024.04 1024.30 1024.57 1024.85 1025.15 1025.46 1025.76 1026.04 1026.28 1026.48 1026.63 1026.73 1026.80 1026.84 1026.86 1026.89 1026.91 1026.95 1026.99 1027.03 1027.06 1027.07 1027.04 1026.97 1026.85
1014.45 1015.21 1015.97 1016.70 1017.41 1018.09 1018.76 1019.40 1020.03 1020.64 1021.22 1021.76 1022.25 1022.70 1023.10 1023.45 1023.76 1024.05 1024.33 1024.60 1024.89 1025.19 1025.51 1025.84 1026.16 1026.47 1026.75 1026.98 1027.17 1027.31 1027.41 1027.46 1027.50 1027.51 1027.52 1027.53 1027.53 1027.52 1027.50 1027.45 1027.38 1027.27 1027.11
1014.47 1015.25 1016.03 1016.78 1017.51 1018.22 1018.90 1019.56 1020.19 1020.80 1021.38 1021.92 1022.42 1022.88 1023.29 1023.65 1023.98 1024.28 1024.57 1024.86 1025.16 1025.47 1025.81 1026.15 1026.49 1026.83 1027.14 1027.41 1027.64 1027.82 1027.94 1028.03 1028.07 1028.09 1028.08 1028.05 1028.02 1027.97 1027.90 1027.81 1027.69 1027.54 1027.35
1014.56 1015.38 1016.19 1016.98 1017.73 1018.46 1019.15 1019.80 1020.43 1021.02 1021.59 1022.12 1022.61 1023.05 1023.46 1023.82 1024.16 1024.47 1024.76 1025.06 1025.37 1025.69 1026.03 1026.39 1026.75 1027.11 1027.44 1027.75 1028.01 1028.21 1028.37 1028.48 1028.54 1028.55 1028.54 1028.50 1028.43 1028.35 1028.25 1028.13 1027.98 1027.82 1027.62
1014.66 1015.53 1016.38 1017.21 1017.99 1018.73 1019.42 1020.07 1020.68 1021.25 1021.79 1022.30 1022.77 1023.20 1023.60 1023.96 1024.30 1024.61 1024.92 1025.23 1025.54 1025.87 1026.22 1026.58 1026.95 1027.31 1027.67 1027.99 1028.27 1028.51 1028.69 1028.81 1028.88 1028.91 1028.89 1028.84 1028.77 1028.67 1028.56 1028.43 1028.29 1028.12 1027.94
1014.69 1015.61 1016.51 1017.37 1018.18 1018.93 1019.62 1020.26 1020.85 1021.40 1021.92 1022.40 1022.86 1023.28 1023.68 1024.05 1024.39 1024.72 1025.04 1025.36 1025.69 1026.03 1026.38 1026.74 1027.11 1027.49 1027.85 1028.18 1028.48 1028.72 1028.92 1029.06 1029.14 1029.18 1029.17 1029.13 1029.06 1028.97 1028.86 1028.75 1028.62 1028.48 1028.33
1014.58 1015.55 1016.49 1017.38 1018.21 1018.97 1019.66 1020.29 1020.87 1021.41 1021.91 1022.38 1022.84 1023.27 1023.68 1024.07 1024.44 1024.80 1025.15 1025.49 1025.84 1026.19 1026.55 1026.92 1027.29 1027.66 1028.02 1028.35 1028.65 1028.91 1029.11 1029.26 1029.35 1029.40 1029.40 1029.38 1029.32 1029.26 1029.18 1029.09 1029.00 1028.89 1028.77
1014.29 1015.29 1016.26 1017.17 1018.01 1018.77 1019.47 1020.10 1020.68 1021.21 1021.72 1022.21 1022.68 1023.14 1023.59 1024.03 1024.44 1024.85 1025.24 1025.62 1026.00 1026.37 1026.74 1027.12 1027.49 1027.86 1028.21 1028.54 1028.84 1029.09 1029.30 1029.45 1029.56 1029.62 1029.64 1029.63 1029.60 1029.56 1029.51 1029.45 1029.39 1029.32 1029.23
1013.82 1014.83 1015.80 1016.71 1017.55 1018.33 1019.02 1019.66 1020.26 1020.82 1021.35 1021.88 1022.40 1022.91 1023.42 1023.91 1024.40 1024.86 1025.31 1025.74 1026.16 1026.56 1026.95 1027.34 1027.72 1028.08 1028.43 1028.76 1029.05 1029.30 1029.51 1029.67 1029.78 1029.85 1029.89 1029.89 1029.88 1029.86 1029.84 1029.81 1029.78 1029.73 1029.66
1013.21 1014.20 1015.15 1016.06 1016.89 1017.66 1018.37 1019.03 1019.65 1020.25 1020.84 1021.42 1022.00 1022.58 1023.16 1023.74 1024.29 1024.83 1025.35 1025.83 1026.29 1026.73 1027.15 1027.55 1027.94 1028.31 1028.65 1028.98 1029.27 1029.52 1029.73 1029.90 1030.02 1030.10 1030.14 1030.16 1030.16 1030.15 1030.14 1030.12 1030.10 1030.06 1030.00
1012.54 1013.49 1014.41 1015.29 1016.11 1016.88 1017.60 1018.28 1018.94 1019.58 1020.23 1020.87 1021.53 1022.19 1022.85 1023.51 1024.14 1024.75 1025.32 1025.86 1026.37 1026.85 1027.29 1027.71 1028.11 1028.49 1028.84 1029.17 1029.47 1029.72 1029.94 1030.11 1030.24 1030.33 1030.38 1030.40 1030.40 1030.38 1030.36 1030.34 1030.30 1030.25 1030.18
1011.92 1012.81 1013.68 1014.52 1015.32 1016.08 1016.81 1017.51 1018.21 1018.90 1019.60 1020.32 1021.04 1021.78 1022.51 1023.23 1023.93 1024.60 1025.23 1025.82 1026.37 1026.87 1027.35 1027.79 1028.20 1028.59 1028.96 1029.30 1029.60 1029.87 1030.10 1030.28 1030.42 1030.50 1030.55 1030.56 1030.55 1030.52 1030.48 1030.43 1030.36 1030.29 1030.19
1011.43 1012.25 1013.06 1013.85 1014.63 1015.37 1016.11 1016.83 1017.56 1018.29 1019.04 1019.81 1020.59 1021.38 1022.17 1022.94 1023.69 1024.40 1025.07 1025.69 1026.27 1026.80 1027.29 1027.76 1028.19 1028.60 1028.98 1029.34 1029.66 1029.95 1030.19 1030.38 1030.52 1030.61 1030.65 1030.65 1030.61 1030.55 1030.47 1030.38 1030.28 1030.16 1030.03
1011.13 1011.88 1012.63 1013.38 1014.12 1014.85 1015.58 1016.31 1017.05 1017.82 1018.60 1019.40 1020.21 1021.04 1021.85 1022.66 1023.43 1024.17 1024.85 1025.50 1026.09 1026.64 1027.15 1027.63 1028.09 1028.51 1028.92 1029.29 1029.64 1029.94 1030.20 1030.40 1030.54 1030.63 1030.66 1030.64 1030.57 1030.48 1030.36 1030.22 1030.07 1029.92 1029.75
Thickness
5732 5733 5732 5732 5731 5730 5729 5728 5727 5726 5725 5724 5723 5721 5719 5718 5716 5715 5713 5712 5711 5709 5709 5707 5705 5705 5703 5703 5702 5701 5699 5696 5689 5688 5689 5689 5687 5686 5686 5685 5685 5684 5683
5732 5732 5731 5731 5730 5728 5727 5727 5727 5726 5725 5724 5723 5721 5719 5717 5715 5713 5712 5710 5709 5707 5706 5705 5704 5703 5701 5700 5699 5698 5696 5695 5690 5685 5686 5686 5685 5684 5684 5683 5682 5681 5680
5732 5731 5730 5729 5728 5727 5726 5726 5726 5725 5724 5723 5722 5720 5718 5717 5715 5713 5711 5709 5708 5706 5704 5702 5701 5700 5697 5697 5696 5695 5694 5694 5690 5686 5683 5683 5682 5682 5681 5680 5680 5678 5677
5731 5729 5728 5727 5727 5727 5726 5725 5725 5724 5723 5722 5721 5719 5717 5716 5714 5712 5711 5709 5706 5704 5702 5700 5698 5696 5694 5694 5693 5691 5691 5689 5687 5683 5680 5679 5678 5678 5677 5674 5673 5674 5673
5729 5728 5727 5727 5727 5725 5724 5723 5723 5722 5722 5720 5718 5717 5715 5714 5712 5710 5709 5707 5704 5702 5700 5698 5696 5694 5693 5691 5690 5687 5686 5684 5682 5679 5676 5674 5672 5671 5670 5670 5668 5668 5668
5728 5726 5726 5725 5724 5722 5721 5720 5720 5719 5718 5717 5715 5713 5712 5711 5709 5708 5707 5705 5703 5700 5698 5695 5693 5691 5690 5688 5686 5685 5683 5680 5677 5674 5671 5669 5668 5668 5667 5666 5663 5661 5659
5727 5725 5724 5723 5720 5719 5719 5717 5715 5715 5714 5712 5711 5709 5707 5706 5706 5705 5704 5702 5700 5698 5696 5694 5693 5690 5687 5685 5683 5681 5679 5677 5675 5671 5667 5665 5664 5664 5663 5661 5659 5656 5653
5726 5724 5722 5720 5717 5716 5715 5714 5713 5712 5710 5708 5707 5706 5704 5703 5703 5702 5700 5698 5697 5695 5694 5692 5689 5686 5685 5682 5679 5677 5674 5673 5671 5669 5666 5663 5662 5661 5659 5656 5654 5652 5651
5725 5723 5721 5719 5716 5714 5712 5711 5710 5709 5707 5706 5704 5702 5701 5699 5699 5698 5696 5694 5692 5691 5690 5689 5687 5684 5682 5680 5677 5673 5670 5668 5667 5665 5663 5660 5658 5656 5654 5651 5648 5644 5640
5726 5724 5721 5718 5715 5713 5711 5710 5709 5707 5705 5704 5702 5701 5699 5697 5696 5695 5693 5691 5688 5687 5686 5685 5683 5681 5679 5676 5673 5669 5665 5663 5663 5660 5658 5656 5653 5651 5648 5645 5641 5636 5632
5728 5724 5720 5717 5715 5712 5710 5709 5707 5705 5702 5700 5699 5698 5697 5695 5693 5692 5690 5688 5686 5684 5682 5679 5678 5676 5674 5671 5669 5665 5662 5660 5657 5655 5652 5650 5648 5645 5641 5638 5635 5630 5625
5726 5722 5719 5716 5714 5712 5708 5705 5704 5701 5698 5697 5695 5694 5693 5693 5691 5688 5687 5685 5684 5681 5678 5676 5673 5672 5669 5666 5663 5660 5658 5655 5651 5648 5645 5643 5640 5637 5635 5632 5629 5626 5622
5722 5718 5716 5714 5711 5709 5706 5702 5700 5698 5695 5693 5692 5690 5689 5689 5687 5686 5683 5681 5679 5676 5674 5672 5670 5667 5664 5660 5658 5655 5651 5647 5644 5640 5638 5636 5634 5631 5629 5626 5622 5619 5616
5718 5715 5712 5710 5707 5705 5702 5700 5697 5695 5692 5691 5689 5687 5686 5684 5683 5680 5678 5675 5673 5670 5667 5665 5663 5661 5658 5655 5652 5648 5645 5641 5638 5634 5632 5630 5627 5624 5620 5617 5613 5610 5606
5714 5712 5709 5706 5703 5701 5698 5695 5694 5693 5692 5689 5688 5686 5683 5681 5681 5679 5675 5672 5669 5665 5662 5658 5655 5652 5649 5647 5645 5642 5639 5635 5632 5629 5625 5622 5619 5616 5612 5609 5605 5601 5596
5710 5707 5704 5701 5699 5695 5691 5687 5687 5687 5687 5687 5686 5684 5682 5681 5678 5675 5672 5668 5665 5661 5656 5652 5649 5646 5643 5640 5637 5635 5632 5629 5625 5622 5618 5614 5611 5607 5604 5601 5597 5592 5587
5706 5703 5700 5698 5694 5691 5688 5684 5680 5678 5679 5679 5678 5677 5676 5673 5671 5668 5665 5662 5658 5655 5649 5646 5643 5640 5637 5635 5631 5628 5625 5622 5619 5615 5611 5606 5603 5599 5595 5591 5587 5582 5578
5701 5699 5696 5693 5690 5688 5685 5683 5679 5675 5671 5669 5669 5669 5667 5666 5663 5660 5657 5653 5648 5645 5643 5640 5636 5634 5631 5628 5624 5621 5618 5614 5610 5606 5602 5598 5593 5589 5585 5581 5576 5572 5568
5695 5692 5690 5688 5686 5684 5682 5679 5676 5673 5669 5666 5662 5659 5658 5656 5654 5651 5648 5645 5642 5638 5636 5633 5630 5627 5624 5620 5617 5613 5609 5605 5601 5597 5593 5588 5584 5579 5575 5571 5567 5563 5558
5688 5687 5685 5682 5680 5678 5676 5674 5671 5668 5664 5661 5657 5654 5650 5647 5644 5641 5639 5638 5636 5633 5630 5627 5623 5620 5616 5612 5608 5604 5600 5596 5591 5587 5583 5578 5574 5569 5565 5560 5556 5551 5546
5682 5680 5679 5676 5674 5672 5670 5668 5665 5662 5659 5656 5653 5650 5646 5643 5640 5638 5634 5632 5629 5626 5623 5620 5616 5612 5608 5604 5599 5595 5591 5586 5581 5576 5571 5567 5562 5558 5554 5549 5545 5540 5535
5675 5674 5672 5670 5667 5665 5663 5661 5659 5656 5653 5650 5646 5643 5640 5637 5634 5631 5628 5625 5622 5618 5615 5611 5607 5603 5598 5594 5589 5584 5579 5574 5569 5564 5559 5554 5550 5545 5541 5536 5531 5526 5521
5668 5666 5664 5663 5661 5658 5656 5654 5652 5649 5646 5643 5640 5636 5632 5630 5627 5624 5621 5617 5614 5610 5606 5602 5597 5593 5588 5584 5579 5573 5567 5562 5556 5551 5546 5542 5537 5532 5527 5522 5517 5512 5506
5660 5658 5656 5655 5653 5651 5648 5646 5644 5642 5639 5636 5633 5629 5625 5622 5619 5616 5612 5608 5604 5600 5596 5592 5587 5583 5577 5572 5567 5561 5555 5550 5544 5539 5534 5528 5523 5518 5512 5507 5502 5497 5491
5650 5648 5647 5645 5644 5642 5640 5638 5635 5633 5631 5628 5625 5621 5617 5613 5609 5606 5602 5598 5594 5590 5586 5582 5577 5571 5566 5561 5555 5549 5543 5537 5531 5526 5520 5515 5509 5503 5498 5492 5487 5482 5477
5640 5638 5637 5636 5634 5632 5630 5628 5626 5623 5620 5618 5615 5611 5607 5603 5599 5595 5592 5587 5583 5579 5575 5570 5565 5560 5554 5548 5542 5536 5530 5524 5518 5512 5506 5501 5495 5489 5484 5478 5473 5467 5462